This is the latest recevied weather packets stored in our database for station/object KQ4OSL. If no packets are shown the sender has not sent any weather packets the latest 10 day(s).
| Time | Temp. | Humidity | Pressure | Rain* | Wind** | Luminosity | Snow |
|---|---|---|---|---|---|---|---|
| 1787556796 | 20° C | 99% | 1017.9 hPa | 0 mm | - | 0 W/m² | - |
| 1787556492 | 20° C | 99% | 1017.8 hPa | 0 mm | - | 0 W/m² | - |
| 1787556188 | 20° C | 98% | 1017.8 hPa | 0 mm | - | 0 W/m² | - |
| 1787555883 | 20.56° C | 98% | 1017.9 hPa | 0 mm | - | 0 W/m² | - |
| 1787555583 | 20.56° C | 95% | 1018 hPa | 0 mm | - | 0 W/m² | - |
| 1787555279 | 21.11° C | 93% | 1018 hPa | 0 mm | - | 0 W/m² | - |
| 1787554974 | 21.11° C | 93% | 1017.8 hPa | 0 mm | - | 0 W/m² | - |
| 1787554669 | 20.56° C | 96% | 1017.8 hPa | 0 mm | - | 0 W/m² | - |
| 1787554368 | 20.56° C | 96% | 1018.1 hPa | 0 mm | - | 0 W/m² | - |
| 1787554064 | 21.11° C | 95% | 1018 hPa | 0 mm | - | 0 W/m² | - |
| 1787553759 | 21.11° C | 93% | 1018.1 hPa | 0 mm | - | 0 W/m² | - |
| 1787553456 | 21.11° C | 95% | 1018 hPa | 0 mm | - | 0 W/m² | - |
| 1787553151 | 20.56° C | 98% | 1018.2 hPa | 0 mm | - | 0 W/m² | - |
| 1787552849 | 20.56° C | 98% | 1018.3 hPa | 0 mm | - | 0 W/m² | - |
| 1787552544 | 20.56° C | 98% | 1018.2 hPa | 0 mm | - | 0 W/m² | - |
| 1787552245 | 20.56° C | 98% | 1018.2 hPa | 0 mm | - | 0 W/m² | - |
| 1787551945 | 20.56° C | 98% | 1018.3 hPa | 0 mm | - | 0 W/m² | - |
| 1787551640 | 20.56° C | 98% | 1018.1 hPa | 0 mm | - | 0 W/m² | - |
| 1787551334 | 20.56° C | 98% | 1018.4 hPa | 0 mm | - | 0 W/m² | - |
| 1787551034 | 20.56° C | 97% | 1018.4 hPa | 0 mm | - | 0 W/m² | - |
| 1787550729 | 21.11° C | 97% | 1018.5 hPa | 0 mm | - | 0 W/m² | - |
| 1787550425 | 21.11° C | 97% | 1018.4 hPa | 0 mm | - | 0 W/m² | - |
| 1787550120 | 21.11° C | 97% | 1018.4 hPa | 0 mm | - | 0 W/m² | - |
| 1787549816 | 21.11° C | 97% | 1018.4 hPa | 0 mm | - | 0 W/m² | - |
| 1787549512 | 21.11° C | 96% | 1018.4 hPa | 0 mm | - | 0 W/m² | - |
* Rain latest hour (hover to see other rain measurements)
** Current wind speed in m/s (hover to see current wind gust speed)